19-04-2022, 00:00:08,    307,    0.0,    7.2,   0.00,   0.00, 1013.3,   69.2, -999.0
19-04-2022, 00:00:18,    322,    0.0,    7.3,   0.00,   0.00, 1013.3,   69.3, -999.0
19-04-2022, 00:00:28,    322,    0.0,    7.3,   0.00,   0.00, 1013.3,   69.3, -999.0
19-04-2022, 00:00:38,    267,    0.0,    7.3,   0.00,   0.00, 1013.3,   69.2, -999.0
19-04-2022, 00:00:48,    268,    0.0,    7.3,   0.00,   0.00, 1013.3,   69.1, -999.0
19-04-2022, 00:00:58,    268,    0.0,    7.3,   0.00,   0.00, 1013.3,   69.1, -999.0
19-04-2022, 00:01:08,    268,    0.0,    7.3,   0.00,   0.00, 1013.3,   69.1, -999.0
19-04-2022, 00:01:18,    268,    0.0,    7.3,   0.00,   0.00, 1013.3,   69.0, -999.0
19-04-2022, 00:01:28,    268,    0.0,    7.2,   0.00,   0.00, 1013.3,   69.0, -999.0
19-04-2022, 00:01:38,    268,    0.0,    7.3,   0.00,   0.00, 1013.3,   69.1, -999.0
19-04-2022, 00:01:48,    266,    0.0,    7.3,   0.00,   0.00, 1013.3,   69.1, -999.0
19-04-2022, 00:01:57,    270,    0.0,    7.3,   0.00,   0.00, 1013.2,   69.1, -999.0
19-04-2022, 00:02:08,    267,    0.0,    7.2,   0.00,   0.00, 1013.2,   69.0, -999.0
19-04-2022, 00:02:18,    268,    0.0,    7.3,   0.00,   0.00, 1013.2,   69.0, -999.0
19-04-2022, 00:02:27,    267,    0.0,    7.3,   0.00,   0.00, 1013.3,   68.9, -999.0
19-04-2022, 00:02:37,    267,    0.0,    7.3,   0.00,   0.00, 1013.2,   68.9, -999.0
19-04-2022, 00:02:48,    267,    0.0,    7.3,   0.00,   0.00, 1013.3,   68.9, -999.0
19-04-2022, 00:02:57,    267,    0.0,    7.3,   0.00,   0.00, 1013.3,   69.1, -999.0
19-04-2022, 00:03:07,    267,    0.0,    7.3,   0.00,   0.00, 1013.3,   69.1, -999.0
19-04-2022, 00:03:17,    268,    0.0,    7.3,   0.00,   0.00, 1013.3,   69.1, -999.0
19-04-2022, 00:03:27,    267,    0.0,    7.3,   0.00,   0.00, 1013.3,   69.1, -999.0
19-04-2022, 00:03:37,    267,    0.0,    7.2,   0.00,   0.00, 1013.3,   69.0, -999.0
19-04-2022, 00:03:47,    266,    0.0,    7.3,   0.00,   0.00, 1013.3,   68.9, -999.0
19-04-2022, 00:03:57,    267,    0.0,    7.2,   0.00,   0.00, 1013.3,   69.1, -999.0
19-04-2022, 00:04:07,    266,    0.6,    7.3,   0.00,   0.00, 1013.4,   69.4, -999.0
19-04-2022, 00:04:17,    266,    0.1,    7.3,   0.00,   0.00, 1013.3,   69.3, -999.0
19-04-2022, 00:04:27,    266,    0.0,    7.3,   0.00,   0.00, 1013.3,   69.1, -999.0
19-04-2022, 00:04:37,    264,    0.0,    7.2,   0.00,   0.00, 1013.3,   69.1, -999.0
19-04-2022, 00:04:47,    268,    0.0,    7.0,   0.00,   0.00, 1013.3,   69.1, -999.0
19-04-2022, 00:04:57,    264,    0.0,    7.2,   0.00,   0.00, 1013.3,   69.3, -999.0
19-04-2022, 00:05:06,    265,    0.3,    7.2,   0.00,   0.00, 1013.4,   69.2, -999.0
19-04-2022, 00:05:17,    268,    0.1,    7.2,   0.00,   0.00, 1013.3,   69.2, -999.0
19-04-2022, 00:05:27,    268,    0.0,    7.2,   0.00,   0.00, 1013.2,   69.1, -999.0
19-04-2022, 00:05:36,    268,    0.0,    7.3,   0.00,   0.00, 1013.3,   69.2, -999.0
19-04-2022, 00:05:47,    269,    0.0,    7.2,   0.00,   0.00, 1013.3,   69.2, -999.0
19-04-2022, 00:05:57,    268,    0.0,    7.1,   0.00,   0.00, 1013.3,   69.2, -999.0
19-04-2022, 00:06:06,    268,    0.0,    7.3,   0.00,   0.00, 1013.3,   69.2, -999.0
19-04-2022, 00:06:16,    268,    0.0,    7.3,   0.00,   0.00, 1013.3,   69.2, -999.0
19-04-2022, 00:06:26,    268,    0.0,    7.3,   0.00,   0.00, 1013.2,   69.1, -999.0
19-04-2022, 00:06:36,    268,    0.0,    7.3,   0.00,   0.00, 1013.3,   69.1, -999.0
19-04-2022, 00:06:46,    268,    0.0,    7.2,   0.00,   0.00, 1013.3,   69.1, -999.0
19-04-2022, 00:06:56,    268,    0.0,    7.2,   0.00,   0.00, 1013.3,   69.0, -999.0
19-04-2022, 00:07:06,    268,    0.0,    7.3,   0.00,   0.00, 1013.2,   69.0, -999.0
19-04-2022, 00:07:16,    268,    0.0,    7.2,   0.00,   0.00, 1013.3,   69.1, -999.0
19-04-2022, 00:07:26,    268,    0.0,    7.3,   0.00,   0.00, 1013.3,   69.1, -999.0
19-04-2022, 00:07:36,    268,    0.0,    7.3,   0.00,   0.00, 1013.3,   69.1, -999.0
19-04-2022, 00:07:46,    268,    0.0,    7.3,   0.00,   0.00, 1013.3,   69.0, -999.0
19-04-2022, 00:07:56,    267,    0.0,    7.3,   0.00,   0.00, 1013.3,   69.1, -999.0
19-04-2022, 00:08:06,    268,    0.0,    7.2,   0.00,   0.00, 1013.3,   69.1, -999.0
19-04-2022, 00:08:15,    268,    0.0,    7.2,   0.00,   0.00, 1013.3,   68.9, -999.0
19-04-2022, 00:08:26,    268,    0.0,    7.1,   0.00,   0.00, 1013.3,   68.9, -999.0
19-04-2022, 00:08:36,    267,    0.0,    7.2,   0.00,   0.00, 1013.2,   68.8, -999.0
19-04-2022, 00:08:45,    267,    0.0,    7.2,   0.00,   0.00, 1013.2,   68.8, -999.0
19-04-2022, 00:08:56,    267,    0.0,    7.1,   0.00,   0.00, 1013.3,   68.9, -999.0
19-04-2022, 00:09:06,    267,    0.3,    7.2,   0.00,   0.00, 1013.4,   69.1, -999.0
19-04-2022, 00:09:15,    267,    0.2,    7.2,   0.00,   0.00, 1013.3,   69.2, -999.0
19-04-2022, 00:09:25,    268,    0.1,    7.2,   0.00,   0.00, 1013.3,   69.0, -999.0
19-04-2022, 00:09:35,    267,    0.1,    7.2,   0.00,   0.00, 1013.3,   69.2, -999.0
19-04-2022, 00:09:45,    268,    0.3,    7.1,   0.00,   0.00, 1013.3,   69.3, -999.0
19-04-2022, 00:09:55,    267,    0.1,    7.2,   0.00,   0.00, 1013.3,   69.2, -999.0
19-04-2022, 00:10:05,    268,    0.3,    7.2,   0.00,   0.00, 1013.4,   69.5, -999.0
19-04-2022, 00:10:15,    267,    0.0,    7.2,   0.00,   0.00, 1013.3,   69.4, -999.0
19-04-2022, 00:10:25,    268,    0.0,    7.0,   0.00,   0.00, 1013.2,   69.2, -999.0
19-04-2022, 00:10:35,    268,    0.0,    7.0,   0.00,   0.00, 1013.2,   69.2, -999.0
19-04-2022, 00:10:45,    268,    0.0,    7.1,   0.00,   0.00, 1013.2,   69.2, -999.0
19-04-2022, 00:10:55,    268,    0.0,    7.0,   0.00,   0.00, 1013.2,   69.2, -999.0
19-04-2022, 00:11:05,    268,    0.0,    7.1,   0.00,   0.00, 1013.2,   69.2, -999.0
19-04-2022, 00:11:15,    293,    0.2,    7.2,   0.00,   0.00, 1013.3,   69.5, -999.0
19-04-2022, 00:11:25,    293,    0.2,    7.2,   0.00,   0.00, 1013.3,   69.4, -999.0
19-04-2022, 00:11:35,    293,    0.0,    7.2,   0.00,   0.00, 1013.2,   69.3, -999.0
19-04-2022, 00:11:45,    293,    0.0,    7.2,   0.00,   0.00, 1013.2,   69.3, -999.0
19-04-2022, 00:11:54,    293,    0.0,    7.2,   0.00,   0.00, 1013.2,   69.3, -999.0
19-04-2022, 00:12:05,    293,    0.0,    7.1,   0.00,   0.00, 1013.2,   69.4, -999.0
19-04-2022, 00:12:15,    293,    0.0,    7.2,   0.00,   0.00, 1013.2,   69.5, -999.0
19-04-2022, 00:12:24,    293,    0.0,    7.1,   0.00,   0.00, 1013.2,   69.3, -999.0
19-04-2022, 00:12:34,    293,    0.0,    7.2,   0.00,   0.00, 1013.2,   69.3, -999.0
19-04-2022, 00:12:45,    276,    0.1,    7.2,   0.00,   0.00, 1013.2,   69.4, -999.0
19-04-2022, 00:12:54,    276,    0.0,    7.2,   0.00,   0.00, 1013.2,   69.2, -999.0
19-04-2022, 00:13:04,    276,    0.1,    7.2,   0.00,   0.00, 1013.2,   69.5, -999.0
19-04-2022, 00:13:14,    276,    0.0,    7.2,   0.00,   0.00, 1013.2,   69.1, -999.0
19-04-2022, 00:13:24,    275,    0.0,    7.2,   0.00,   0.00, 1013.2,   69.2, -999.0
19-04-2022, 00:13:34,    276,    0.0,    7.2,   0.00,   0.00, 1013.2,   69.2, -999.0
19-04-2022, 00:13:44,    276,    0.0,    7.2,   0.00,   0.00, 1013.1,   69.3, -999.0
19-04-2022, 00:13:54,    276,    0.0,    7.2,   0.00,   0.00, 1013.2,   69.3, -999.0
19-04-2022, 00:14:04,    275,    0.0,    7.2,   0.00,   0.00, 1013.2,   69.3, -999.0
19-04-2022, 00:14:14,    275,    0.0,    7.1,   0.00,   0.00, 1013.2,   69.3, -999.0
19-04-2022, 00:14:24,    275,    0.0,    7.1,   0.00,   0.00, 1013.2,   69.2, -999.0
19-04-2022, 00:14:34,    275,    0.0,    7.2,   0.00,   0.00, 1013.2,   69.2, -999.0
19-04-2022, 00:14:44,    274,    0.0,    7.1,   0.00,   0.00, 1013.2,   69.3, -999.0
19-04-2022, 00:14:54,    275,    0.1,    7.1,   0.00,   0.00, 1013.2,   69.6, -999.0
19-04-2022, 00:15:03,    274,    0.5,    7.1,   0.00,   0.00, 1013.3,   69.6, -999.0
19-04-2022, 00:15:14,    274,    0.0,    7.1,   0.00,   0.00, 1013.2,   69.3, -999.0
19-04-2022, 00:15:24,    274,    0.0,    7.1,   0.00,   0.00, 1013.1,   69.3, -999.0
19-04-2022, 00:15:33,    275,    0.0,    7.1,   0.00,   0.00, 1013.1,   69.3, -999.0
19-04-2022, 00:15:44,    274,    0.0,    7.0,   0.00,   0.00, 1013.1,   69.3, -999.0
19-04-2022, 00:15:54,    274,    0.0,    7.0,   0.00,   0.00, 1013.1,   69.3, -999.0
19-04-2022, 00:16:03,    274,    0.0,    7.0,   0.00,   0.00, 1013.1,   69.4, -999.0
19-04-2022, 00:16:13,    274,    0.3,    7.1,   0.00,   0.00, 1013.2,   69.7, -999.0
19-04-2022, 00:16:23,    276,    0.6,    7.2,   0.00,   0.00, 1013.3,   69.8, -999.0
19-04-2022, 00:16:33,    275,    0.2,    7.1,   0.00,   0.00, 1013.2,   69.6, -999.0
19-04-2022, 00:16:43,    275,    0.2,    7.2,   0.00,   0.00, 1013.3,   69.8, -999.0
19-04-2022, 00:16:53,    258,    0.5,    7.2,   0.00,   0.00, 1013.2,   69.7, -999.0
19-04-2022, 00:17:03,    255,    1.0,    7.1,   0.00,   0.00, 1013.3,   69.8, -999.0
19-04-2022, 00:17:13,    255,    0.0,    7.0,   0.00,   0.00, 1013.1,   69.5, -999.0
19-04-2022, 00:17:23,    255,    0.0,    7.1,   0.00,   0.00, 1013.2,   69.6, -999.0
19-04-2022, 00:17:33,    255,    0.3,    7.1,   0.00,   0.00, 1013.3,   69.7, -999.0
19-04-2022, 00:17:43,    253,    0.4,    7.1,   0.00,   0.00, 1013.3,   69.8, -999.0
19-04-2022, 00:17:53,    253,    0.3,    7.1,   0.00,   0.00, 1013.3,   69.8, -999.0
19-04-2022, 00:18:03,    253,    0.0,    7.0,   0.00,   0.00, 1013.2,   69.4, -999.0
19-04-2022, 00:18:13,    253,    0.2,    7.0,   0.00,   0.00, 1013.2,   69.6, -999.0
19-04-2022, 00:18:23,    255,    0.0,    7.0,   0.00,   0.00, 1013.2,   69.5, -999.0
19-04-2022, 00:18:33,    255,    0.3,    7.1,   0.00,   0.00, 1013.3,   69.9, -999.0
19-04-2022, 00:18:42,    255,    0.0,    7.0,   0.00,   0.00, 1013.1,   69.6, -999.0
19-04-2022, 00:18:53,    256,    0.0,    6.9,   0.00,   0.00, 1013.1,   69.6, -999.0
19-04-2022, 00:19:03,    255,    0.0,    6.9,   0.00,   0.00, 1013.1,   69.7, -999.0
19-04-2022, 00:19:12,    256,    0.0,    6.9,   0.00,   0.00, 1013.2,   69.8, -999.0
19-04-2022, 00:19:22,    256,    0.0,    7.1,   0.00,   0.00, 1013.2,   69.7, -999.0
19-04-2022, 00:19:32,    256,    0.0,    7.0,   0.00,   0.00, 1013.1,   69.6, -999.0
19-04-2022, 00:19:42,    256,    0.0,    7.0,   0.00,   0.00, 1013.1,   69.6, -999.0
19-04-2022, 00:19:52,    256,    0.0,    7.0,   0.00,   0.00, 1013.1,   69.7, -999.0
19-04-2022, 00:20:02,    257,    0.0,    7.1,   0.00,   0.00, 1013.2,   69.7, -999.0
19-04-2022, 00:20:12,    258,    1.0,    7.1,   0.00,   0.00, 1013.3,   70.0, -999.0
19-04-2022, 00:20:22,    257,    0.7,    7.1,   0.00,   0.00, 1013.2,   70.0, -999.0
19-04-2022, 00:20:32,    256,    0.0,    6.9,   0.00,   0.00, 1013.1,   69.7, -999.0
19-04-2022, 00:20:42,    257,    0.0,    7.0,   0.00,   0.00, 1013.1,   69.7, -999.0
19-04-2022, 00:20:52,    257,    0.1,    7.0,   0.00,   0.00, 1013.2,   69.9, -999.0
19-04-2022, 00:21:02,    257,    0.0,    7.0,   0.00,   0.00, 1013.2,   69.8, -999.0
19-04-2022, 00:21:12,    257,    0.0,    7.0,   0.00,   0.00, 1013.1,   69.7, -999.0
19-04-2022, 00:21:22,    257,    0.0,    7.0,   0.00,   0.00, 1013.1,   69.7, -999.0
19-04-2022, 00:21:32,    258,    0.1,    7.0,   0.00,   0.00, 1013.2,   69.9, -999.0
19-04-2022, 00:21:42,    257,    0.3,    7.0,   0.00,   0.00, 1013.2,   69.9, -999.0
19-04-2022, 00:21:51,    256,    0.0,    6.9,   0.00,   0.00, 1013.1,   69.6, -999.0
19-04-2022, 00:22:02,    255,    0.0,    7.0,   0.00,   0.00, 1013.1,   69.8, -999.0
19-04-2022, 00:22:12,    255,    0.0,    7.0,   0.00,   0.00, 1013.1,   69.8, -999.0
19-04-2022, 00:22:21,    255,    0.0,    7.0,   0.00,   0.00, 1013.1,   69.9, -999.0
19-04-2022, 00:22:31,    277,    1.3,    7.0,   0.00,   0.00, 1013.3,   70.2, -999.0
19-04-2022, 00:22:41,    276,    0.5,    7.0,   0.00,   0.00, 1013.3,   70.2, -999.0
19-04-2022, 00:22:51,    257,    0.0,    7.0,   0.00,   0.00, 1013.1,   69.9, -999.0
19-04-2022, 00:23:01,    257,    0.3,    7.1,   0.00,   0.00, 1013.2,   70.2, -999.0
19-04-2022, 00:23:11,    283,    0.3,    7.1,   0.00,   0.00, 1013.2,   70.2, -999.0
19-04-2022, 00:23:21,    281,    0.1,    7.1,   0.00,   0.00, 1013.2,   70.4, -999.0
19-04-2022, 00:23:31,    281,    0.0,    7.0,   0.00,   0.00, 1013.1,   70.0, -999.0
19-04-2022, 00:23:41,    282,    0.0,    7.0,   0.00,   0.00, 1013.1,   70.1, -999.0
19-04-2022, 00:23:51,    235,    0.2,    7.0,   0.00,   0.00, 1013.2,   70.3, -999.0
19-04-2022, 00:24:01,    235,    0.1,    7.1,   0.00,   0.00, 1013.2,   70.2, -999.0
19-04-2022, 00:24:11,    235,    0.0,    6.9,   0.00,   0.00, 1013.1,   70.1, -999.0
19-04-2022, 00:24:21,    236,    0.0,    6.9,   0.00,   0.00, 1013.1,   70.1, -999.0
19-04-2022, 00:24:31,    242,    0.6,    7.1,   0.00,   0.00, 1013.2,   70.4, -999.0
19-04-2022, 00:24:41,    243,    0.0,    7.0,   0.00,   0.00, 1013.1,   70.0, -999.0
19-04-2022, 00:24:51,    247,    0.3,    7.1,   0.00,   0.00, 1013.3,   70.3, -999.0
19-04-2022, 00:25:00,    243,    0.0,    7.1,   0.00,   0.00, 1013.1,   70.1, -999.0
19-04-2022, 00:25:11,    240,    0.2,    7.1,   0.00,   0.00, 1013.2,   70.2, -999.0
19-04-2022, 00:25:21,    239,    0.2,    7.1,   0.00,   0.00, 1013.2,   70.3, -999.0
19-04-2022, 00:25:30,    258,    0.0,    7.0,   0.00,   0.00, 1013.1,   70.0, -999.0
19-04-2022, 00:25:41,    258,    0.3,    7.0,   0.00,   0.00, 1013.2,   70.2, -999.0
19-04-2022, 00:25:50,    281,    0.1,    7.1,   0.00,   0.00, 1013.2,   70.2, -999.0
19-04-2022, 00:26:00,    241,    0.3,    7.1,   0.00,   0.00, 1013.3,   70.3, -999.0
19-04-2022, 00:26:10,    261,    0.7,    7.0,   0.00,   0.00, 1013.2,   70.3, -999.0
19-04-2022, 00:26:20,    257,    0.8,    7.1,   0.00,   0.00, 1013.3,   70.4, -999.0
19-04-2022, 00:26:30,    257,    0.1,    7.1,   0.00,   0.00, 1013.2,   70.2, -999.0
19-04-2022, 00:26:40,    257,    0.0,    7.0,   0.00,   0.00, 1013.1,   70.1, -999.0
19-04-2022, 00:26:50,    257,    0.0,    7.0,   0.00,   0.00, 1013.1,   70.2, -999.0
19-04-2022, 00:27:00,    257,    0.0,    7.0,   0.00,   0.00, 1013.1,   70.1, -999.0
19-04-2022, 00:27:10,    256,    0.0,    7.0,   0.00,   0.00, 1013.1,   70.2, -999.0
19-04-2022, 00:27:20,    256,    0.0,    7.0,   0.00,   0.00, 1013.1,   70.1, -999.0
19-04-2022, 00:27:30,    256,    0.0,    7.0,   0.00,   0.00, 1013.1,   70.1, -999.0
19-04-2022, 00:27:40,    258,    0.0,    7.0,   0.00,   0.00, 1013.1,   70.1, -999.0
19-04-2022, 00:27:50,    259,    0.1,    7.0,   0.00,   0.00, 1013.2,   70.3, -999.0
19-04-2022, 00:28:00,    263,    0.9,    7.1,   0.00,   0.00, 1013.3,   70.4, -999.0
19-04-2022, 00:28:10,    269,    0.8,    7.1,   0.00,   0.00, 1013.3,   70.4, -999.0
19-04-2022, 00:28:20,    268,    0.3,    7.1,   0.00,   0.00, 1013.3,   70.4, -999.0
19-04-2022, 00:28:30,    268,    0.0,    6.9,   0.00,   0.00, 1013.1,   70.1, -999.0
19-04-2022, 00:28:39,    268,    0.0,    6.9,   0.00,   0.00, 1013.1,   70.0, -999.0
19-04-2022, 00:28:50,    268,    0.0,    6.9,   0.00,   0.00, 1013.1,   70.0, -999.0
19-04-2022, 00:28:59,    268,    0.1,    7.0,   0.00,   0.00, 1013.2,   70.3, -999.0
19-04-2022, 00:29:09,    268,    0.1,    7.0,   0.00,   0.00, 1013.2,   70.3, -999.0
19-04-2022, 00:29:19,    268,    0.5,    7.0,   0.00,   0.00, 1013.3,   70.5, -999.0
19-04-2022, 00:29:29,    268,    0.8,    7.0,   0.00,   0.00, 1013.3,   70.5, -999.0
19-04-2022, 00:29:39,    268,    0.1,    7.0,   0.00,   0.00, 1013.2,   70.4, -999.0
19-04-2022, 00:29:49,    268,    0.0,    6.9,   0.00,   0.00, 1013.1,   70.2, -999.0
19-04-2022, 00:29:59,    268,    0.0,    7.0,   0.00,   0.00, 1013.1,   70.2, -999.0
19-04-2022, 00:30:09,    268,    0.0,    6.9,   0.00,   0.00, 1013.1,   70.2, -999.0
19-04-2022, 00:30:19,    268,    0.0,    6.8,   0.00,   0.00, 1013.1,   70.3, -999.0
19-04-2022, 00:30:29,    268,    0.0,    6.9,   0.00,   0.00, 1013.1,   70.2, -999.0
19-04-2022, 00:30:39,    268,    0.0,    6.9,   0.00,   0.00, 1013.1,   70.3, -999.0
19-04-2022, 00:30:49,    268,    0.0,    7.0,   0.00,   0.00, 1013.1,   70.3, -999.0
19-04-2022, 00:30:59,    268,    0.0,    7.0,   0.00,   0.00, 1013.1,   70.4, -999.0
19-04-2022, 00:31:09,    268,    0.2,    7.0,   0.00,   0.00, 1013.2,   70.6, -999.0
19-04-2022, 00:31:19,    269,    0.2,    6.9,   0.00,   0.00, 1013.2,   70.6, -999.0
19-04-2022, 00:31:29,    278,    1.4,    6.9,   0.00,   0.00, 1013.3,   70.6, -999.0
19-04-2022, 00:31:42,    277,    0.6,    7.0,   0.00,   0.00, 1013.2,   70.7, -999.0
19-04-2022, 00:31:49,    280,    0.7,    7.0,   0.00,   0.00, 1013.3,   70.6, -999.0
19-04-2022, 00:31:58,    279,    0.3,    7.0,   0.00,   0.00, 1013.2,   70.6, -999.0
19-04-2022, 00:32:08,    279,    0.2,    7.0,   0.00,   0.00, 1013.2,   70.5, -999.0
19-04-2022, 00:32:19,    279,    0.0,    6.9,   0.00,   0.00, 1013.2,   70.6, -999.0
19-04-2022, 00:32:28,    279,    0.0,    6.9,   0.00,   0.00, 1013.1,   70.3, -999.0
19-04-2022, 00:32:38,    279,    0.0,    6.9,   0.00,   0.00, 1013.1,   70.4, -999.0
19-04-2022, 00:32:48,    294,    0.0,    6.9,   0.00,   0.00, 1013.1,   70.4, -999.0
19-04-2022, 00:32:58,    295,    0.0,    6.9,   0.00,   0.00, 1013.1,   70.5, -999.0
19-04-2022, 00:33:08,    282,    0.0,    6.9,   0.00,   0.00, 1013.1,   70.6, -999.0
19-04-2022, 00:33:18,    281,    0.6,    7.0,   0.00,   0.00, 1013.3,   70.9, -999.0
19-04-2022, 00:33:28,    281,    0.8,    7.0,   0.00,   0.00, 1013.2,   70.8, -999.0
19-04-2022, 00:33:38,    280,    0.9,    7.0,   0.00,   0.00, 1013.2,   70.9, -999.0
19-04-2022, 00:33:48,    278,    0.6,    6.9,   0.00,   0.00, 1013.2,   70.9, -999.0
19-04-2022, 00:33:58,    278,    0.4,    7.0,   0.00,   0.00, 1013.2,   70.8, -999.0
19-04-2022, 00:34:08,    278,    0.6,    6.9,   0.00,   0.00, 1013.3,   71.0, -999.0
19-04-2022, 00:34:18,    273,    1.0,    7.0,   0.00,   0.00, 1013.2,   71.0, -999.0
19-04-2022, 00:34:28,    273,    0.4,    6.9,   0.00,   0.00, 1013.2,   70.9, -999.0
19-04-2022, 00:34:38,    274,    0.5,    6.9,   0.00,   0.00, 1013.3,   70.9, -999.0
19-04-2022, 00:34:48,    273,    0.5,    6.9,   0.00,   0.00, 1013.3,   71.0, -999.0
19-04-2022, 00:34:58,    249,    0.9,    6.9,   0.00,   0.00, 1013.2,   71.1, -999.0
19-04-2022, 00:35:07,    253,    0.2,    6.9,   0.00,   0.00, 1013.2,   70.9, -999.0
19-04-2022, 00:35:17,    253,    0.0,    6.8,   0.00,   0.00, 1013.1,   70.8, -999.0
19-04-2022, 00:35:28,    256,    0.3,    6.9,   0.00,   0.00, 1013.2,   71.0, -999.0
19-04-2022, 00:35:37,    256,    0.9,    6.9,   0.00,   0.00, 1013.2,   71.2, -999.0
19-04-2022, 00:35:47,    264,    0.4,    6.9,   0.00,   0.00, 1013.2,   71.0, -999.0
19-04-2022, 00:35:58,    269,    0.4,    6.8,   0.00,   0.00, 1013.2,   71.0, -999.0
19-04-2022, 00:36:07,    270,    0.3,    6.7,   0.00,   0.00, 1013.2,   71.3, -999.0
19-04-2022, 00:36:17,    269,    0.0,    6.8,   0.00,   0.00, 1013.1,   71.1, -999.0
19-04-2022, 00:36:27,    270,    0.5,    6.8,   0.00,   0.00, 1013.2,   71.3, -999.0
19-04-2022, 00:36:37,    270,    0.3,    6.9,   0.00,   0.00, 1013.2,   71.2, -999.0
19-04-2022, 00:36:47,    269,    0.0,    6.8,   0.00,   0.00, 1013.1,   70.9, -999.0
19-04-2022, 00:36:57,    273,    0.0,    6.8,   0.00,   0.00, 1013.1,   71.0, -999.0
19-04-2022, 00:37:07,    271,    0.2,    6.8,   0.00,   0.00, 1013.2,   71.3, -999.0
19-04-2022, 00:37:17,    286,    1.0,    7.0,   0.00,   0.00, 1013.2,   71.6, -999.0
19-04-2022, 00:37:27,    286,    0.1,    6.8,   0.00,   0.00, 1013.2,   71.2, -999.0
19-04-2022, 00:37:37,    285,    0.0,    6.8,   0.00,   0.00, 1013.1,   71.2, -999.0
19-04-2022, 00:37:47,    285,    0.0,    6.8,   0.00,   0.00, 1013.1,   71.1, -999.0
19-04-2022, 00:37:57,    285,    0.0,    6.8,   0.00,   0.00, 1013.1,   71.2, -999.0
19-04-2022, 00:38:07,    284,    0.0,    6.8,   0.00,   0.00, 1013.1,   71.3, -999.0
19-04-2022, 00:38:16,    284,    0.0,    6.8,   0.00,   0.00, 1013.1,   71.2, -999.0
19-04-2022, 00:38:27,    284,    0.0,    6.8,   0.00,   0.00, 1013.1,   71.2, -999.0
19-04-2022, 00:38:37,    284,    0.0,    6.8,   0.00,   0.00, 1013.1,   71.2, -999.0
19-04-2022, 00:38:46,    284,    0.0,    6.8,   0.00,   0.00, 1013.1,   71.3, -999.0
19-04-2022, 00:38:56,    283,    0.0,    6.8,   0.00,   0.00, 1013.1,   71.1, -999.0
19-04-2022, 00:39:07,    283,    0.0,    6.8,   0.00,   0.00, 1013.1,   71.1, -999.0
19-04-2022, 00:39:16,    277,    0.4,    6.8,   0.00,   0.00, 1013.2,   71.4, -999.0
19-04-2022, 00:39:26,    277,    0.0,    6.8,   0.00,   0.00, 1013.1,   71.2, -999.0
19-04-2022, 00:39:36,    277,    0.1,    6.8,   0.00,   0.00, 1013.1,   71.3, -999.0
19-04-2022, 00:39:46,    277,    0.4,    6.8,   0.00,   0.00, 1013.2,   71.5, -999.0
19-04-2022, 00:39:56,    277,    1.6,    6.9,   0.00,   0.00, 1013.2,   71.5, -999.0
19-04-2022, 00:40:06,    276,    0.6,    6.9,   0.00,   0.00, 1013.2,   71.4, -999.0
19-04-2022, 00:40:16,    276,    0.3,    6.8,   0.00,   0.00, 1013.2,   71.5, -999.0
19-04-2022, 00:40:26,    276,    0.1,    6.8,   0.00,   0.00, 1013.1,   71.3, -999.0
19-04-2022, 00:40:36,    276,    0.0,    6.8,   0.00,   0.00, 1013.1,   71.1, -999.0
19-04-2022, 00:40:46,    275,    0.0,    6.8,   0.00,   0.00, 1013.1,   71.2, -999.0
19-04-2022, 00:40:56,    276,    0.0,    6.8,   0.00,   0.00, 1013.1,   71.1, -999.0
19-04-2022, 00:41:06,    276,    0.3,    6.8,   0.00,   0.00, 1013.2,   71.6, -999.0
19-04-2022, 00:41:16,    276,    0.0,    6.8,   0.00,   0.00, 1013.1,   71.2, -999.0
19-04-2022, 00:41:25,    275,    0.5,    6.8,   0.00,   0.00, 1013.2,   71.5, -999.0
19-04-2022, 00:41:36,    249,    0.5,    6.8,   0.00,   0.00, 1013.3,   71.7, -999.0
19-04-2022, 00:41:46,    249,    0.0,    6.8,   0.00,   0.00, 1013.1,   71.4, -999.0
19-04-2022, 00:41:55,    249,    0.0,    6.7,   0.00,   0.00, 1013.1,   71.3, -999.0
19-04-2022, 00:42:05,    250,    0.7,    6.9,   0.00,   0.00, 1013.2,   71.7, -999.0
19-04-2022, 00:42:16,    254,    0.4,    6.7,   0.00,   0.00, 1013.2,   71.7, -999.0
19-04-2022, 00:42:25,    254,    0.0,    6.8,   0.00,   0.00, 1013.1,   71.3, -999.0
19-04-2022, 00:42:35,    254,    0.0,    6.8,   0.00,   0.00, 1013.1,   71.3, -999.0
19-04-2022, 00:42:46,    254,    0.0,    6.7,   0.00,   0.00, 1013.1,   71.3, -999.0
19-04-2022, 00:42:55,    254,    0.0,    6.7,   0.00,   0.00, 1013.1,   71.4, -999.0
19-04-2022, 00:43:05,    254,    0.0,    6.7,   0.00,   0.00, 1013.1,   71.4, -999.0
19-04-2022, 00:43:15,    254,    0.0,    6.7,   0.00,   0.00, 1013.1,   71.4, -999.0
19-04-2022, 00:43:25,    254,    0.0,    6.7,   0.00,   0.00, 1013.0,   71.4, -999.0
19-04-2022, 00:43:35,    254,    0.0,    6.7,   0.00,   0.00, 1013.0,   71.5, -999.0
19-04-2022, 00:43:45,    254,    0.0,    6.7,   0.00,   0.00, 1013.0,   71.4, -999.0
19-04-2022, 00:43:55,    274,    0.0,    6.7,   0.00,   0.00, 1013.0,   71.5, -999.0
19-04-2022, 00:44:05,    274,    0.6,    6.8,   0.00,   0.00, 1013.2,   71.8, -999.0
19-04-2022, 00:44:15,    274,    0.0,    6.8,   0.00,   0.00, 1013.1,   71.6, -999.0
19-04-2022, 00:44:25,    274,    0.0,    6.7,   0.00,   0.00, 1013.0,   71.4, -999.0
19-04-2022, 00:44:34,    275,    0.0,    6.7,   0.00,   0.00, 1013.1,   71.4, -999.0
19-04-2022, 00:44:45,    276,    0.0,    6.6,   0.00,   0.00, 1013.0,   71.5, -999.0
19-04-2022, 00:44:55,    274,    0.0,    6.6,   0.00,   0.00, 1013.0,   71.4, -999.0
19-04-2022, 00:45:04,    274,    0.0,    6.7,   0.00,   0.00, 1013.0,   71.5, -999.0
19-04-2022, 00:45:15,    274,    0.0,    6.7,   0.00,   0.00, 1013.0,   71.5, -999.0
19-04-2022, 00:45:25,    274,    0.0,    6.7,   0.00,   0.00, 1013.0,   71.7, -999.0
19-04-2022, 00:45:34,    251,    0.4,    6.7,   0.00,   0.00, 1013.1,   71.8, -999.0
19-04-2022, 00:45:44,    236,    0.2,    6.7,   0.00,   0.00, 1013.1,   71.7, -999.0
19-04-2022, 00:45:55,    237,    0.0,    6.6,   0.00,   0.00, 1013.1,   71.7, -999.0
19-04-2022, 00:46:04,    237,    0.0,    6.7,   0.00,   0.00, 1013.0,   71.7, -999.0
19-04-2022, 00:46:14,    237,    0.0,    6.7,   0.00,   0.00, 1013.0,   71.7, -999.0
19-04-2022, 00:46:24,    281,    0.4,    6.8,   0.00,   0.00, 1013.1,   71.8, -999.0
19-04-2022, 00:46:34,    268,    1.3,    6.8,   0.00,   0.00, 1013.2,   72.1, -999.0
19-04-2022, 00:46:44,    266,    0.6,    6.7,   0.00,   0.00, 1013.2,   72.0, -999.0